sat.trackr.live / text

‹ back to catalog

STARLINK-37124

NORAD 68283 · 2026-055X

PAYLOAD ACTIVE UNKNOWN

§ Identity

Operator
Country
US
Launch date
2026-03-19
Launch site
AFETR
Launch vehicle
Mass (kg)
RCS (m²)

Purposes: comms

External: N2YO · Heavens-Above · Gunter

§ Orbital elements

Epoch: 2026-05-24T18:56:03.499296Z

Period
94.11 min
Inclination
53.1589°
Eccentricity
0.0000993
Mean motion
15.30205073 rev/d
Perigee alt
474.5 km
Apogee alt
475.9 km
Semi-major
6,853.3 km
B*
3.8649e-4
RAAN
326.3898°
Arg perigee
86.0528°
Mean anomaly
274.0586°
Rev number
1,157

§ Raw data

STARLINK-371241 68283U 26055X   26144.78892939  .00011107  00000+0  38649-3 0  99992 68283  53.1589 326.3898 0000993  86.0528 274.0586 15.30205073 11571

JSON: /api/v1/satellites/68283 · /tle

For live sub-satellite position, see the globe view (requires WebGL).

§ Visibility from observer

Set your observer location to see the next 7 days of passes ≥ 10°. The values pass through the URL so the page stays shareable.

No JS? Fill the form by hand. The geolocation button needs JavaScript.